GFSFLT2_850_dewp_090.txt.gz
Dewpoint
-2 -4 -3 -2 -3 -3 -4 -3 -3 2 5 7 8 11 12 12 12 12 12 12 12 11 11 11 11 10 11 11 10 11 11 11
-2 -2 -3 -2 -2 -2 -2 -2 -2 0 5 7 7 10 12 12 12 12 12 12 12 11 9 9 11 10 11 11 11 12 12 11
0 -1 -1 -1 -1 -1 -1 -0 -0 -2 3 6 7 11 12 13 12 12 12 11 10 10 8 8 12 10 9 11 11 11 11 11
6 1 0 -0 0 0 0 1 0 -2 3 6 7 10 11 11 12 12 10 10 8 8 8 9 11 10 10 10 11 10 10 11
7 7 4 1 0 1 2 1 -0 -0 5 7 8 9 9 10 11 11 12 10 8 8 9 10 10 10 10 10 10 10 10 10
7 7 9 9 1 2 3 3 -0 4 7 8 8 9 9 10 10 10 10 9 8 8 8 10 10 10 10 10 10 10 10 10
9 9 10 10 10 2 5 5 3 6 8 10 10 9 10 10 10 10 10 10 9 8 9 8 9 9 9 9 10 9 9 10
6 11 12 11 10 6 3 6 5 9 9 8 8 10 10 11 11 10 11 11 9 8 9 9 8 9 10 9 10 9 9 9
-5 4 12 12 11 9 5 4 5 11 10 10 9 10 10 10 11 10 11 10 9 9 9 9 9 9 10 9 10 10 9 9
-6 -3 8 11 11 11 7 4 5 9 10 11 10 11 11 10 11 11 11 11 10 9 9 9 9 9 9 9 10 9 9 9
-7 -7 1 8 10 11 9 6 4 9 9 11 11 10 10 10 8 11 11 11 10 10 10 9 9 9 9 10 10 9 9 8
-8 -4 -2 6 8 12 11 9 6 10 11 11 11 10 10 10 11 10 11 12 11 11 10 10 10 10 10 10 10 9 8 7
-8 -4 -1 6 8 11 10 10 5 7 13 12 11 10 7 12 12 11 11 11 11 11 10 11 10 10 10 10 10 9 8 7
-7 -5 -4 3 6 10 10 10 5 2 5 11 10 9 10 10 11 11 11 11 11 10 10 10 9 10 10 10 8 9 9 7
-5 -5 -4 4 6 9 11 10 8 5 6 9 10 10 9 10 11 11 11 11 10 10 10 10 9 10 10 9 8 8 8 7
-3 -4 -3 3 7 10 10 9 7 5 3 5 7 9 10 10 11 11 10 10 10 10 9 10 9 10 10 9 7 6 6 7
-0 -1 -0 4 10 10 11 10 8 5 4 5 6 6 8 10 10 10 10 10 10 10 9 9 9 10 10 9 8 7 6 6
7 6 3 10 10 11 11 10 9 6 7 7 5 9 9 9 10 11 10 10 10 10 9 10 10 10 9 8 8 7 6 6
12 11 10 9 10 10 11 11 8 7 7 7 6 9 9 10 10 11 10 10 11 10 10 10 10 10 9 8 7 7 5 6
6 8 9 9 11 11 12 10 9 8 7 6 8 8 9 9 10 10 11 10 10 10 10 10 10 9 9 8 8 7 5 4

GFSFLT2_850_dewp_093.txt.gz
Dewpoint
-4 -4 -3 -4 -4 -3 -3 -2 1 3 6 8 10 11 12 12 12 11 12 12 11 10 11 10 10 9 7 9 10 11 11 11
-4 -3 -4 -6 -5 -3 -2 -2 -0 3 5 7 9 11 11 12 12 11 12 12 12 11 12 11 10 9 10 9 10 11 11 11
-2 -3 -4 -5 -4 -3 -2 -1 0 1 4 6 9 10 10 11 11 11 12 12 12 12 12 11 9 9 9 9 11 11 11 10
2 0 -3 -3 -3 -3 -2 -1 0 0 1 4 7 8 9 11 11 12 12 12 12 12 10 11 10 9 10 10 10 10 11 10
6 5 4 -0 -2 -2 -2 -1 0 1 -1 3 7 8 11 12 11 11 12 12 11 9 9 9 10 8 10 9 10 10 11 10
7 7 5 2 0 -1 -1 -0 0 0 -2 3 8 8 10 10 10 10 11 11 11 10 7 8 9 9 10 9 11 10 10 10
8 9 9 8 7 2 0 0 0 0 -2 5 7 8 9 9 9 9 10 10 11 8 8 9 9 10 10 10 11 9 10 10
11 9 5 10 10 9 8 2 1 1 -0 6 7 9 9 9 9 9 9 10 9 9 9 8 10 10 10 11 10 9 10 10
8 11 10 10 10 10 10 5 3 2 0 5 6 10 11 10 10 10 10 10 10 10 9 10 9 9 9 10 10 9 9 9
-10 4 10 9 9 11 11 9 5 4 2 7 7 10 11 11 10 10 10 10 11 11 9 10 9 9 10 9 10 10 10 9
-10 -9 3 7 9 9 10 11 7 6 4 7 9 10 11 11 10 10 10 11 11 10 9 9 9 9 9 9 10 9 10 9
-8 -10 -8 -0 5 8 9 12 10 8 7 5 9 10 11 11 10 9 11 11 11 10 9 10 9 9 9 10 10 10 10 9
-10 -7 -9 -4 3 4 10 10 11 10 10 6 8 11 12 11 10 8 10 12 11 11 10 10 10 10 10 10 10 10 10 10
-9 -7 -7 -7 -6 0 6 7 11 11 8 8 10 12 12 11 11 10 11 11 12 12 11 11 11 10 10 11 10 9 10 10
-8 -8 -5 -6 -4 5 8 10 10 10 10 9 13 12 12 10 9 10 11 11 11 11 11 11 10 10 10 10 9 9 9 9
-8 -7 -5 -3 0 -1 4 7 7 7 9 8 8 10 10 11 10 9 10 11 11 11 11 10 10 10 10 10 10 9 9 9
-6 -7 -4 1 -3 -1 4 9 7 7 8 6 7 9 9 11 9 9 10 11 11 10 11 11 10 10 9 10 10 8 9 8
0 1 1 2 3 2 8 9 7 7 9 7 8 7 8 10 9 8 10 11 10 11 11 11 11 10 10 9 9 8 8 8
12 10 7 6 10 9 10 9 9 8 9 6 6 6 7 6 7 10 10 10 10 10 11 11 11 10 10 10 9 8 8 8
12 14 12 12 12 11 11 9 9 9 9 6 5 4 3 6 9 10 10 10 10 10 9 10 10 10 10 9 9 9 8 8

GFSFLT2_850_dewp_099.txt.gz
Dewpoint
10 9 9 9 10 10 8 8 7 5 7 9 11 11 10 10 10 10 11 12 12 12 11 10 11 11 11 10 9 8 10 9
11 10 9 10 10 9 8 8 7 7 7 7 8 10 11 11 10 11 11 12 12 11 11 11 11 11 11 8 7 5 11 10
10 11 11 10 9 8 8 7 6 6 6 7 7 9 11 11 11 11 11 11 12 12 11 11 11 11 10 9 8 7 10 9
10 11 11 10 9 8 6 5 4 2 4 5 5 5 8 11 12 12 12 11 12 12 12 11 11 11 10 9 8 8 8 7
9 10 9 7 6 6 5 2 2 0 -0 3 4 4 5 9 11 12 12 12 12 12 12 12 12 11 11 9 9 9 7 7
10 7 6 6 6 4 3 2 0 -1 -1 1 3 2 2 3 8 11 12 12 12 12 12 12 12 12 9 10 9 9 8 7
-10 8 9 7 4 4 3 2 1 -0 -1 1 1 2 -0 1 5 8 11 12 12 13 13 12 12 12 11 10 10 9 9 7
-11 -9 3 8 10 6 3 2 0 0 0 1 1 1 0 1 4 7 9 11 13 13 12 11 12 12 11 11 11 10 10 8
-11 -11 -10 -6 2 9 10 8 3 2 1 1 2 3 1 2 5 6 9 9 11 13 12 12 11 11 9 10 10 10 10 9
-10 -10 -10 -10 -2 6 10 9 8 4 2 2 2 3 2 3 6 7 8 8 10 12 12 12 12 9 9 10 10 10 11 9
-7 -8 -9 -10 -10 -10 0 8 9 8 6 5 4 3 2 4 6 7 8 9 10 10 11 12 9 10 10 11 11 9 8 8
-6 -7 -8 -9 -9 -9 -7 3 10 9 6 7 7 5 3 5 7 9 9 10 10 11 11 10 10 10 10 11 11 11 8 8
-0 -4 -7 -7 -8 -9 -7 -3 -0 9 7 7 9 7 5 5 6 9 9 10 9 11 11 11 11 10 10 11 10 9 9 8
4 2 -2 -4 -5 -7 -8 -6 -4 10 9 8 10 9 8 7 7 9 9 10 10 11 12 11 11 10 11 10 10 10 8 8
5 5 2 -1 -5 8 10 10 12 13 8 6 9 9 10 9 10 9 9 9 10 12 11 11 11 10 11 10 10 10 10 10
6 7 6 1 -1 8 11 11 12 10 5 5 7 9 9 10 11 10 10 10 10 12 10 10 11 10 11 10 10 10 10 10
6 7 7 5 5 2 10 9 9 11 9 3 5 6 7 8 4 11 10 10 11 10 11 10 10 11 11 10 10 10 9 9
6 7 8 9 8 2 10 10 10 12 9 5 8 7 6 7 6 6 11 11 10 9 9 10 10 10 10 10 10 10 10 9
6 7 7 10 10 8 11 12 12 11 9 8 9 4 3 4 5 10 11 12 9 9 9 10 10 10 10 10 10 10 10 10
5 6 7 9 11 11 11 12 12 12 12 11 9 5 4 5 6 11 11 11 10 9 9 10 10 10 10 9 10 10 10 10

GFSFLT2_850_dewp_102.txt.gz
Dewpoint
7 10 11 12 11 10 10 10 10 10 10 10 10 9 9 10 11 11 11 11 10 10 10 10 11 11 11 11 11 10 13 12
9 11 12 12 12 11 11 11 11 11 11 10 10 10 10 10 10 10 10 10 11 11 11 10 11 11 11 11 10 10 12 11
11 11 11 12 12 12 12 12 11 11 11 11 11 11 11 11 10 10 11 11 11 12 11 11 11 11 11 11 10 11 9 11
10 10 11 12 12 12 12 12 12 12 12 10 11 12 14 14 13 11 11 11 11 11 12 11 11 11 12 11 10 13 12 12
11 10 11 11 11 12 12 12 12 13 12 13 10 13 14 13 14 12 12 12 12 12 12 12 12 12 13 12 13 12 12 12
13 10 9 9 11 10 10 9 9 8 7 5 7 6 14 14 14 14 14 14 14 14 14 13 13 13 13 13 12 13 12 12
4 12 1 9 7 5 6 5 5 5 4 4 6 6 8 12 13 14 14 14 14 14 13 13 12 12 13 12 13 12 12 11
-6 2 11 11 10 9 7 3 3 2 2 2 4 6 9 5 7 8 13 15 14 13 13 13 13 12 12 13 12 12 12 10
-6 -10 -7 11 3 8 10 8 4 2 1 1 2 5 5 4 3 5 8 13 14 13 13 12 13 12 12 11 11 11 11 10
-7 -5 -7 -7 8 10 11 11 11 11 9 4 2 3 4 4 4 3 6 10 10 11 13 13 13 12 12 12 11 10 11 10
-7 -6 -6 -5 -5 8 10 11 5 12 11 9 5 2 3 6 4 4 6 11 12 11 13 13 12 12 12 11 10 10 11 11
-0 -2 -4 -5 -5 4 10 11 1 8 10 10 8 6 3 6 6 4 6 10 10 10 12 12 13 12 11 9 10 11 11 10
5 1 1 1 2 3 8 11 8 -4 9 12 9 8 6 5 6 5 7 9 9 9 10 12 12 12 11 11 11 11 11 8
5 5 4 4 6 6 6 10 11 11 11 12 6 10 7 7 7 6 7 9 10 11 11 11 12 11 11 11 11 11 11 10
5 5 5 5 6 7 5 10 11 12 12 9 -2 10 9 8 8 7 9 10 11 12 11 12 11 11 11 11 10 10 10 10
5 6 6 6 7 7 8 7 10 10 11 5 4 8 11 9 9 9 9 10 11 11 12 11 11 11 11 11 11 10 10 10
5 6 6 7 7 7 7 8 10 10 11 12 13 11 8 10 8 5 9 8 9 10 11 11 10 11 11 11 11 10 10 10
5 6 6 7 7 8 8 9 10 11 11 12 12 13 10 8 8 9 9 6 3 6 8 11 10 9 10 11 11 10 10 10
4 6 6 7 7 8 9 9 9 12 11 12 12 13 10 9 7 8 8 7 3 4 6 11 10 9 10 10 10 10 10 10
4 5 6 7 7 9 10 10 10 12 12 12 12 13 13 12 9 6 9 5 4 5 9 12 10 8 10 10 10 10 10 10

GFSFLT2_850_dewp_108.txt.gz
Dewpoint
16 16 14 12 12 11 10 9 9 9 8 9 10 12 12 12 12 11 11 11 11 11 10 10 10 10 9 10 11 11 10 12
17 17 14 11 11 11 11 10 9 9 9 9 9 10 10 11 11 11 11 11 11 10 10 10 9 10 10 10 11 12 11 9
13 16 16 12 11 12 12 11 10 10 10 9 9 9 9 10 10 11 11 12 12 11 10 10 10 10 10 11 11 11 10 9
14 14 16 16 14 12 12 12 11 11 11 10 10 10 10 10 10 10 11 12 13 11 10 11 11 11 10 11 11 11 10 10
13 13 15 15 16 16 15 13 12 12 12 11 11 11 11 12 13 12 12 12 13 12 11 11 11 11 12 11 11 11 11 12
13 13 13 15 16 16 16 15 14 13 12 12 12 12 12 14 13 13 13 11 12 12 11 11 11 11 12 13 12 12 11 12
-1 8 13 13 14 15 15 15 15 15 15 14 13 13 12 12 15 13 14 13 12 12 12 12 12 12 11 12 12 12 12 13
-1 -1 7 13 13 13 14 15 14 15 14 15 15 14 14 13 13 14 13 14 13 13 12 13 12 12 12 12 13 12 12 12
4 5 3 6 12 13 13 12 14 14 14 13 13 13 13 14 13 14 12 14 13 12 12 13 13 13 12 12 12 12 12 12
5 6 7 3 1 11 12 13 13 13 14 14 13 12 11 11 12 13 13 13 13 13 11 13 13 13 12 13 12 13 12 12
5 6 6 7 3 -3 1 11 12 13 13 13 14 13 12 8 10 11 9 12 13 13 12 12 12 12 12 13 13 13 12 12
5 6 6 6 4 3 2 -2 1 10 12 14 13 13 13 12 12 13 11 11 10 13 12 11 12 12 12 12 13 12 12 12
5 5 4 4 4 6 6 6 7 5 8 11 13 13 13 14 13 13 14 14 10 11 10 11 12 12 12 12 12 12 11 12
4 3 2 3 4 5 5 5 5 6 5 9 11 10 12 12 14 13 13 14 12 10 7 10 12 11 11 11 11 11 11 12
4 4 3 4 5 5 6 6 5 5 2 5 10 12 10 12 13 13 13 11 10 12 12 9 9 12 11 11 11 10 10 10
4 4 3 4 4 5 5 6 6 5 7 7 4 11 11 10 9 11 13 11 12 10 12 12 11 11 11 11 10 10 10 10
3 2 2 3 4 5 6 6 6 6 6 5 7 8 11 10 11 10 12 11 10 4 12 12 12 11 12 12 11 11 11 10
2 2 3 3 4 5 6 6 7 7 7 7 5 6 7 11 8 10 12 12 11 10 7 9 12 10 8 10 10 10 11 10
1 1 2 2 3 4 5 6 6 6 7 7 7 5 8 10 9 9 12 12 11 10 9 12 10 8 4 2 4 10 11 10
1 1 1 2 2 4 5 5 5 6 7 8 8 7 8 7 8 10 10 10 12 12 11 11 7 5 4 4 11 7 11 11

GFSFLT2_850_dewp_111.txt.gz
Dewpoint
10 15 14 13 11 11 12 10 9 8 8 8 10 12 12 13 12 12 11 11 10 10 10 10 9 9 8 8 10 11 11 10
8 10 15 15 12 12 11 10 9 9 8 8 9 10 12 12 12 11 11 11 11 10 10 10 10 9 8 9 9 10 11 10
7 12 13 15 13 11 12 11 10 9 9 9 8 9 10 10 10 10 10 11 11 11 10 10 10 10 9 9 9 9 10 11
13 13 13 15 14 12 11 11 11 10 9 9 9 9 8 9 9 9 10 11 11 11 11 10 10 10 10 9 9 9 10 10
2 12 13 14 15 13 12 12 11 11 10 10 10 9 9 9 9 9 10 11 11 11 11 11 10 10 9 10 9 10 10 10
12 13 14 14 14 15 15 14 13 12 11 11 11 10 10 10 9 9 10 10 11 11 10 11 10 10 9 10 10 11 10 11
11 12 13 14 15 15 15 16 15 14 13 12 11 11 11 10 10 9 10 10 10 11 10 10 10 11 11 11 11 11 11 12
1 1 3 12 14 15 14 14 15 15 15 14 14 13 12 11 11 12 12 11 11 12 9 10 10 11 11 11 11 12 12 12
2 3 2 2 9 14 13 13 14 14 14 15 14 14 14 13 12 11 13 13 13 13 13 10 11 11 11 12 12 12 13 12
4 3 4 2 1 6 12 13 12 12 13 13 13 13 14 14 13 14 12 14 13 14 13 12 12 12 11 12 12 12 13 12
4 4 3 1 -2 -2 3 9 12 13 12 12 13 13 13 12 13 14 14 14 13 12 13 12 11 13 12 12 12 12 12 13
4 4 4 4 2 -2 -5 -5 -0 11 12 13 13 13 13 13 13 13 13 13 14 14 13 13 13 12 13 13 12 11 11 12
3 2 2 2 3 3 1 -1 -2 -3 -1 8 12 12 12 11 13 13 13 12 13 14 13 12 13 12 13 13 12 11 12 12
2 2 2 1 1 2 3 3 2 1 -2 1 3 8 11 13 12 12 13 13 11 11 13 11 14 12 13 13 12 13 11 11
3 2 1 0 0 1 2 3 4 4 4 3 0 4 10 10 11 12 12 13 13 11 13 12 13 13 11 11 12 11 10 10
2 1 1 2 2 3 4 5 5 5 5 5 4 3 3 7 7 11 11 11 11 10 11 11 7 6 11 11 10 9 9 9
0 0 1 2 3 4 5 5 6 6 6 6 6 5 4 5 6 10 12 10 9 9 10 10 7 7 5 6 11 10 10 8
-2 -1 -0 1 2 3 4 4 5 6 6 6 7 7 6 4 5 8 11 11 10 7 8 10 6 6 5 11 9 10 11 10
-1 -1 -0 0 2 3 3 4 5 6 6 7 7 7 7 7 5 6 9 11 10 10 8 9 10 8 7 8 9 8 9 9
-1 -1 -0 0 2 2 3 3 4 6 6 6 6 7 8 9 7 5 7 8 6 6 8 8 10 9 9 7 8 8 6 8

GFSFLT2_850_dewp_114.txt.gz
Dewpoint
0 4 11 14 12 11 11 11 9 8 7 7 7 9 11 11 12 12 11 10 9 9 9 10 9 9 10 8 10 11 11 9
4 5 8 12 14 12 12 12 10 8 7 7 8 9 10 11 11 11 11 10 10 10 9 9 9 9 9 9 9 12 11 10
8 7 11 11 13 14 12 12 11 9 8 8 9 9 10 11 11 11 10 10 10 10 10 9 10 10 9 9 9 10 12 12
8 10 11 12 11 13 13 12 11 10 9 9 9 8 9 9 10 10 10 10 10 10 10 10 10 9 9 9 9 10 11 12
7 11 13 14 13 12 13 13 12 11 10 9 9 9 9 9 9 9 9 10 10 10 10 10 10 9 9 9 9 9 10 11
3 14 13 15 15 14 14 13 12 12 11 10 10 10 9 8 8 8 8 9 9 9 10 10 10 10 9 9 9 10 10 11
10 12 15 15 14 15 14 14 14 14 12 11 11 10 10 10 9 9 9 8 8 9 9 10 10 10 10 10 10 9 10 11
13 13 9 12 14 14 15 15 15 15 15 14 12 11 11 11 11 10 9 9 8 8 8 9 10 11 10 10 10 11 10 11
4 3 3 5 11 14 13 13 14 14 15 15 14 14 13 12 12 11 10 10 9 10 10 12 11 11 10 10 11 12 12 11
4 3 3 3 3 5 11 13 13 13 14 14 14 14 14 14 14 13 12 11 12 13 12 12 13 12 11 11 12 12 12 12
2 2 2 2 1 0 0 6 10 12 13 13 13 12 13 13 13 13 12 11 12 13 14 13 13 12 10 11 12 13 13 13
1 1 1 -1 -4 -4 -4 -2 -2 4 9 12 13 13 12 12 13 13 12 12 12 12 14 14 13 13 11 11 13 13 13 13
1 -2 -5 -4 -3 -3 -4 -4 -3 -3 -2 2 8 11 12 12 12 13 13 13 12 12 11 13 13 13 13 13 14 14 13 12
-2 -3 -3 -2 -2 -1 -1 -1 -2 -1 -1 -2 -2 2 7 10 11 12 12 13 13 12 12 11 11 11 12 12 13 13 13 11
-2 -2 -2 -3 -3 -1 1 1 2 2 2 2 2 1 -0 3 7 9 10 12 12 12 11 11 11 10 11 13 12 12 12 11
-2 -3 -3 -3 -2 -1 2 3 2 2 3 3 3 3 3 3 2 5 8 8 10 11 12 10 10 11 11 8 8 10 11 10
-4 -4 -8 -5 -2 -1 0 2 3 3 4 5 5 5 6 5 5 3 4 7 8 11 11 11 10 11 11 9 8 7 9 8
-3 -3 -6 -3 -1 0 1 2 3 3 4 5 6 6 7 7 6 6 5 4 6 9 12 12 11 9 10 10 9 8 10 7
-3 -4 -3 -2 -1 0 1 2 2 3 4 5 6 6 7 7 8 8 7 5 4 8 11 11 11 10 8 7 8 9 7 5
-2 -2 -2 -2 -1 0 1 2 2 3 3 4 5 6 7 7 7 8 9 9 6 6 9 10 11 10 8 8 9 8 7 7